[Date Prev][Date Next][Thread Prev][Thread Next] - [Date Index][Thread Index][Author Index]

2 Line ISS Keps 1-22



ISS
1 25544U 98067A   05022.27589240  .00027199  00000-0  22378-3 0  6457
2 25544  51.6468 286.9329 0009634  17.5113  77.6822 15.70140016352749
----
Via the sarex mailing list at AMSAT.ORG courtesy of AMSAT-NA.
To unsubscribe, send "unsubscribe sarex" to Majordomo@amsat.org



AMSAT Top AMSAT Home